Starlink 36159

operational
NORAD ID: 67079 Int'l Des: 2025-298 Owner: SPXS Country: US Constellation: starlink
LEOCIRCULAR

关于 Starlink 36159

正在加载描述...

实时位置

正在加载3D地球...

即将过境

高度历史

Altitude vs Time

uPlot chart will show altitude changes over time

两行轨道根数

1 67079C 25298E 25349.42409722 -.00873170 00000+0 -13337-2 0 3493
2 67079 70.0022 243.0084 0005557 274.4917 193.8587 16.05036534 14
Epoch: Dec 15, 2025 • Age: 68 hours

当前状态

高度 286.0 km
速度 7.74 km/s
星下点 69.26°N, 85.27°W
发射日期 Dec 14, 2025
运行时间 3 days
类型 internet

技术详情

分类 Payload
质量 575.00 kg
干质量 530.00 kg
总质量 575.00 kg
长度 0.30 m
直径 4.10 m
跨度 29.00 m
形状 Box + pan
制造商 SPXS
平台类型 Starlink V2MO
阶段状态 In Orbit
所有者/国家 SPXS/US

大型星座

Loading constellations...